User: anonymous   Login
Location: Broletto
(44.6000°N, 10.5833°E)
Time: 20:41:49
(UTC+00:00)
Language:

NOSS 3-1 (C) - Orbit

View from above orbital plane
View from above orbital plane
View from above satellite
View from above satellite

Ground track
Ground track

The orbit data is extracted from the following two-line orbital elements,

1 26907U 01040C   21169.00023787 0.00000000  00000-0  00000-0 0    08
2 26907  63.4042 247.6979 0502554   2.1988 357.8011 13.41330224    06
Epoch (UTC): 18 June 2021 00:00:20
Eccentricity: 0.0502554
inclination: 63.4042°
perigee height: 728 km
apogee height: 1480 km
right ascension of ascending node: 247.6979°
argument of perigee: 2.1988°
revolutions per day: 13.41330224
mean anomaly at epoch: 357.8011°
orbit number at epoch: 0

The dashed part of the orbit path shows where the satellite is in the earth's shadow,  

DLR